Location: Newark
(9.4667°S, 159.8167°E)
Time: 10:02:39
(UTC+00:00)

Vanguard 1 - Pass Details

Date: 17 November 2019
Orbit: 651 x 3832 km, 34.3° (Epoch: 14 December)

Event Time Altitude Azimuth Distance (km) Brightness Sun altitude
Rises 10:04:22 0° 294° (WNW) 4,090 13.6 -37.1°
Reaches altitude 10° 10:06:39 10° 291° (WNW) 3,395 13.1 -37.5°
Maximum altitude 10:15:33 66° 210° (SSW) 2,156 11.7 -39.4°
Drops below altitude 10° 10:32:37 10° 130° (SE) 6,103 13.9 -42.8°
Sets 10:38:22 0° 127° (SE) 7,502 14.5 -43.9°
